星链-30576 (STARLINK-30576 )

导读 | 星芒AI

STARLINK-30576 是星链(Starlink)卫星互联网项目中的一颗低轨通信卫星,由SpaceX公司研发并发射。该卫星属于第二代星链卫星群,旨在提升全球互联网覆盖和连接速度。它运行在约550公里高度的近地轨道,配备先进通信设备和激光链路,以实现高速、低延迟的数据传输。STARLINK-30576 的部署有助于增强星链网络的稳定性和服务能力,特别是在偏远和网络基础设施薄弱的地区。

基本信息
目录编号:
58065
目录名称:
STARLINK-30576
国际标识:
2023-158Q
轨道中心:
EARTH
卫星名称:
星链-30576
卫星全名:
星链-30576 (STARLINK-30576 )
卫星状态:
在轨 (已飞行799 天)
发射日期:
2023-10-13 UTC
国别 :
美国 (US)
星等 :
--
轨道信息
数据来源 国际轨道数据
星历时间: 2025-12-20T00:21:06+0800
16小时前
查看轨道信息
半长轴: 6937.188km
偏心率: 0.0001434
轨道倾角: 43.004°
近地点辐角 267.422°
升交点赤经 105.278°
平近点角 92.645°
近地点: 558.056km
远地点: 560.046km
周期: 95.837分钟
每日圈数: 15.025453
详细信息
固有亮度:
5
最大亮度:
0.3
卫星平台:
Starlink v2.0 mini
覆盖范围:
全球
运营商:
太空探索技术公司
运营商所在国:
美国
制造商(研发单位):
太空探索技术公司
制造商所在国:
美国
使用方式:
暂无
卫星简介
星链(Starlink)计划是由太空探索技术公司(SpaceX)提出的一个巨型低轨卫星互联网星座项目,计划在2019年至2024年间在太空搭建由约1.2万颗卫星组成的“星链”网络,其中1584颗将部署在地球上空550千米处的近地轨道,并从2020年开始工作。该卫星仍在工作。
2D轨道图
3D轨道图
轨道高度分析图
轨道倾角分析图
轨道综合分析图
查看轨道综合分析图